This is the latest recevied weather packets stored in our database for station/object DELTON-WX. If no packets are shown the sender has not sent any weather packets the latest 10 day(s).
| Time | Temp. | Humidity | Pressure | Rain* | Wind** | Luminosity | Snow |
|---|---|---|---|---|---|---|---|
| 1777365063 | 15° C | 92% | 970.4 hPa | 0 mm | - | - | - |
| 1777364143 | 15° C | 92% | 970.4 hPa | 0 mm | - | - | - |
| 1777363273 | 15° C | 91% | 970.4 hPa | 0 mm | - | - | - |
| 1777362348 | 15° C | 86% | 970.6 hPa | 0 mm | - | - | - |
| 1777361462 | 15° C | 86% | 970.6 hPa | 0 mm | - | - | - |
| 1777360547 | 15° C | 86% | 970.6 hPa | 0 mm | - | - | - |
| 1777359675 | 15° C | 86% | 970.6 hPa | 0 mm | - | - | - |
| 1777358742 | 14.44° C | 85% | 970.3 hPa | 0 mm | - | - | - |
| 1777357864 | 14.44° C | 85% | 970.3 hPa | 0 mm | - | - | - |
| 1777356943 | 15.56° C | 85% | 970.4 hPa | 0 mm | - | - | - |
| 1777356084 | 15.56° C | 85% | 970.4 hPa | 0 mm | - | - | - |
| 1777355146 | 15° C | 92% | 970.8 hPa | 0 mm | - | - | - |
| 1777354257 | 15.56° C | 92% | 970.8 hPa | 0 mm | - | - | - |
| 1777353347 | 15.56° C | 92% | 970.8 hPa | 0 mm | - | - | - |
| 1777352473 | 15.56° C | 92% | 970.8 hPa | 0 mm | - | - | - |
| 1777351548 | 15.56° C | 95% | 972.4 hPa | 10.16 mm | - | - | - |
| 1777350662 | 15.56° C | 85% | 972.4 hPa | 10.16 mm | - | - | - |
| 1777349748 | 14.44° C | 85% | 972.2 hPa | 1.52 mm | - | - | - |
| 1777348878 | 14.44° C | 85% | 972.2 hPa | 1.52 mm | - | - | - |
| 1777347948 | 14.44° C | 78% | 973.8 hPa | 0 mm | - | - | - |
| 1777347061 | 14.44° C | 80% | 973.9 hPa | 0 mm | - | - | - |
| 1777346144 | 15° C | 80% | 973.9 hPa | 0 mm | - | - | - |
| 1777345274 | 15.56° C | 80% | 973.9 hPa | 0 mm | - | - | - |
| 1777344342 | 15.56° C | 82% | 971.7 hPa | 0 mm | - | - | - |
| 1777343458 | 15.56° C | 86% | 972.1 hPa | 0 mm | - | - | - |
* Rain latest hour (hover to see other rain measurements)
** Current wind speed in m/s (hover to see current wind gust speed)